Hourly Data Report for July 13, 2021

GORE BAY CLIMATE
ONTARIO
Current Station Operator: ECCC - MSC

45°53'00.000" N
82°34'00.000" W
188.60 m
6092920
71956
TZE

Download Data

Hourly Data (July 2021)
Hourly Data Report for July 13, 2021
TIME
LST
Temp Definition
°C
Dew Point Definition
°C
Rel Hum Definition
%
Precip. Amount Definition
mm

Wind Dir Definition
10's deg

Wind Spd Definition
km/h
Visibility Definition
km
Stn Press Definition
kPa
Hmdx Definition


Wind Chill Definition


Weather Definition


00:00 19.8 14.7 72 0.0 11 8   99.64     LegendNANA
01:00 20.4 14.3 68 0.0 13 11   99.61     LegendNANA
02:00 20.6 15.1 71 0.0 17 6   99.60 25   LegendNANA
03:00 20.7 15.0 70 0.0 15 9   99.55 25   LegendNANA
04:00 20.8 15.5 72 0.0 14 13   99.53 25   LegendNANA
05:00 20.4 15.6 74 0.0 14 11   99.52 25   LegendNANA
06:00 20.7 15.8 73 0.0 15 10   99.52 25   LegendNANA
07:00 20.6 15.9 75 0.0 15 12   99.51 25   LegendNANA
08:00 20.5 16.3 77 0.0 15 13   99.49 25   LegendNANA
09:00 20.9 16.5 76 0.0 17 11   99.45 26   LegendNANA
10:00 20.8 17.1 79 0.0 18 8   99.41 26   LegendNANA
11:00 20.6 18.3 87 0.5 17 10   99.36 27   LegendNANA
12:00 19.9 18.0 89 0.0 16 10   99.31     LegendNANA
13:00 19.9 18.3 90 0.4 11 11   99.22     LegendNANA
14:00 18.8 17.6 92 8.7 32 10   99.22     LegendNANA
15:00 19.0 17.8 93 10.6 5 4   99.17     LegendNANA
16:00 19.7 18.0 90 0.0 8 3   99.14     LegendNANA
17:00 19.9 18.1 89 0.0 1 1   99.10     LegendNANA
18:00 20.3 18.0 87 0.0 28 6   99.10 26   LegendNANA
19:00 20.6 18.2 86 0.0 28 7   99.10 27   LegendNANA
20:00 20.4 18.2 87 0.0 29 7   99.11 27   LegendNANA
21:00 19.1 17.8 92 0.0 24 9   99.15     LegendNANA
22:00 19.2 17.8 91 0.0 28 12   99.17     LegendNANA
23:00 18.6 17.3 92 0.0 26 12   99.15     LegendNANA

Notes on Data Quality.

Legend

  • E = Estimated
  • M = Missing
  • NA = Not Available*
  • [empty] = Indicates an unobserved value
Date modified: